Wind_Speed
35 35 36 36 36 36 32 28 27 26 27 26 26 25 23 22 21 21 20 19 19 19 18 18 17 17 16 16 15 15 15 14 14 14 14 14 13 13 13 13 13 13 13 13 14 14 14 15 15
37 37 38 38 38 36 31 29 28 28 28 28 27 26 25 24 23 22 22 21 20 20 19 19 18 18 17 17 16 16 16 16 16 16 16 16 15 15 15 15 15 15 15 15 15 15 16 17 18
39 39 39 40 39 35 31 29 29 30 30 29 29 28 27 25 24 23 23 22 22 21 21 20 19 19 18 17 17 17 17 17 17 17 17 17 17 17 16 16 16 16 16 17 17 17 18 18 19
41 41 42 41 38 34 32 32 32 32 32 31 30 29 28 27 26 25 24 24 23 23 22 21 21 20 19 19 19 19 18 18 18 18 18 18 18 18 18 18 18 18 18 18 19 19 20 20 20
43 44 44 42 38 35 34 34 33 33 33 32 31 30 29 29 28 27 26 25 24 24 23 23 22 21 21 20 20 20 20 20 19 19 20 20 20 20 20 19 19 20 20 20 20 21 21 21 21
44 44 44 41 37 35 35 35 35 35 34 33 32 31 30 30 29 29 28 27 26 25 24 24 23 23 22 22 22 21 21 21 21 21 21 21 21 21 21 21 21 21 21 22 22 22 23 23 23
44 44 44 41 39 37 36 36 36 36 35 34 33 32 31 31 30 30 30 29 27 26 26 25 25 24 24 23 23 22 22 22 21 21 22 22 22 23 23 23 23 23 23 24 24 24 24 25 25
45 45 44 42 39 37 37 37 37 37 36 35 35 33 32 31 31 31 31 30 29 28 28 27 26 25 25 24 24 23 23 23 22 23 23 23 23 23 24 24 24 25 25 25 26 26 26 26 26
46 47 45 41 39 38 38 38 38 38 37 36 35 34 33 33 32 32 31 31 30 30 29 28 27 26 25 25 24 24 23 23 23 23 23 24 24 24 25 25 26 26 26 26 26 26 26 26 26
46 46 43 41 40 39 39 40 39 38 38 37 36 35 34 34 33 32 32 31 31 31 30 29 28 27 26 26 25 24 24 24 24 24 24 24 25 25 25 25 26 26 26 26 27 27 27 27 27
46 45 42 42 41 41 41 41 40 40 39 37 36 36 35 34 34 33 33 32 32 32 31 30 29 28 27 27 26 26 25 25 25 25 25 25 25 25 25 25 26 26 26 26 27 27 27 28 28
46 44 43 43 43 42 42 42 42 41 39 38 38 37 36 36 35 34 34 33 33 32 32 31 30 29 29 28 27 27 27 27 26 26 26 25 25 25 25 26 26 26 27 27 27 28 28 29 29
47 45 44 44 44 44 44 44 43 42 41 40 39 39 38 37 36 35 35 34 33 33 32 32 31 31 30 29 29 29 28 28 27 27 27 26 26 27 27 27 27 27 28 28 29 29 29 30 31
47 46 45 45 45 46 46 45 45 42 42 41 40 39 38 37 37 36 35 34 34 34 33 32 32 31 31 31 30 30 29 29 28 28 28 28 28 28 28 28 29 29 29 30 30 30 31 31 32
48 48 47 46 46 46 47 47 45 43 43 42 41 40 39 38 37 37 36 36 35 35 34 33 33 32 31 31 31 30 30 30 30 30 29 30 30 30 29 30 30 31 31 31 32 32 33 33 34
49 49 49 47 47 47 48 47 44 44 44 43 42 41 40 39 38 38 37 36 36 36 35 34 33 33 32 31 31 31 31 31 31 31 31 30 30 31 31 31 32 33 33 33 33 33 34 34 35
51 50 49 47 48 48 49 46 44 45 45 44 43 42 41 40 39 38 38 37 37 36 36 35 34 33 33 32 32 32 32 32 32 32 32 32 32 32 32 33 33 34 34 34 34 34 35 36 36
51 50 49 48 47 48 48 46 44 45 46 45 44 43 42 41 40 39 39 38 38 37 36 36 35 34 34 33 33 33 33 33 33 33 33 33 33 33 33 33 33 34 34 35 35 35 36 37 37
51 50 49 48 47 48 48 47 46 46 46 45 45 44 43 42 41 41 40 40 39 38 37 36 36 36 35 35 35 35 34 34 34 34 34 34 34 34 35 35 34 34 35 35 35 36 36 38 38
51 51 50 49 48 49 49 49 47 47 46 46 45 44 44 43 43 42 41 40 40 39 38 38 37 37 36 36 36 36 35 35 35 35 35 35 35 35 35 35 35 35 36 35 36 37 38 38 39
51 51 50 50 50 50 51 51 49 47 47 46 45 45 44 44 43 43 42 41 41 40 39 39 39 38 38 38 37 37 36 36 36 36 36 35 36 36 36 36 36 36 36 36 37 38 39 39 40
50 50 50 50 51 51 52 53 50 48 47 46 44 45 44 44 44 43 43 42 41 40 40 40 40 40 39 39 38 37 37 37 37 36 36 36 36 36 37 37 37 37 37 38 38 39 40 40 41
48 48 49 50 51 52 52 53 50 48 47 45 44 44 44 43 43 43 43 42 42 41 41 41 41 40 40 39 38 38 38 38 37 37 37 37 37 37 37 37 38 38 39 39 40 40 41 42 43
47 47 48 50 51 53 51 52 51 48 46 45 45 44 44 43 43 43 43 43 42 41 41 41 40 40 39 38 38 38 39 39 38 38 38 38 38 38 38 39 39 40 40 41 41 42 42 43 44
45 46 46 48 52 53 50 52 50 46 45 45 44 44 43 43 43 43 43 42 42 41 41 40 40 40 39 39 39 39 39 39 39 39 39 39 39 39 39 40 41 41 42 42 43 43 44 44 45
43 45 46 47 50 51 51 52 49 46 45 44 44 43 43 43 43 42 43 42 42 41 41 41 41 40 40 40 39 39 39 39 40 40 40 40 40 40 41 41 42 42 43 43 44 44 44 45 46
43 44 44 46 48 49 51 51 49 46 44 43 43 43 43 42 42 42 42 42 42 42 42 42 42 42 41 41 40 40 40 40 40 40 41 41 41 42 42 42 43 43 43 44 44 45 45 46 46
42 42 43 45 46 47 49 49 46 44 42 42 41 41 42 42 42 42 42 42 42 42 42 42 42 42 42 41 41 40 40 41 41 42 42 42 43 43 43 44 44 44 44 44 44 45 45 46 47
41 42 42 43 45 45 47 46 44 43 41 40 40 40 40 40 41 42 43 42 42 42 42 42 42 42 42 41 41 41 41 42 42 42 43 43 43 43 44 44 44 44 44 45 45 45 46 46 47
38 40 40 40 41 41 43 44 42 41 40 39 39 39 39 39 40 41 42 42 41 41 41 42 41 41 41 41 41 41 41 42 42 42 42 42 43 43 44 44 44 44 44 44 45 45 46 46 47
Wind_Direction
240 240 240 240 241 241 241 241 240 239 240 242 243 244 244 245 245 246 245 244 244 245 246 246 246 248 249 251 253 256 257 259 260 262 264 266 268 272 274 276 277 278 279 281 281 282 283 286 286
240 240 240 240 241 241 241 241 240 240 240 241 242 243 243 243 244 244 244 244 244 245 245 245 247 248 250 251 253 255 257 260 261 263 264 264 265 268 271 274 276 277 278 278 279 282 283 285 285
240 239 240 240 241 242 241 240 240 239 240 240 241 242 242 243 244 244 243 244 244 245 246 246 246 247 248 251 253 255 257 259 261 263 264 264 264 266 269 272 275 276 277 277 279 281 282 283 284
239 239 239 240 241 241 241 240 240 240 240 240 241 242 242 243 244 244 244 244 245 245 246 246 247 248 248 251 254 256 258 260 261 262 263 264 265 267 268 271 273 275 276 277 279 281 282 282 283
239 239 240 240 240 239 240 240 240 240 240 240 241 242 242 243 244 244 244 245 245 245 246 246 247 249 250 252 254 256 258 260 261 262 263 264 265 267 268 270 272 274 276 277 278 279 280 280 282
238 239 240 240 239 239 239 239 239 240 240 240 240 241 241 242 243 243 244 244 245 245 246 247 248 249 251 253 254 256 258 260 261 262 263 264 265 266 267 269 271 273 274 277 278 279 279 280 281
238 239 239 238 237 237 237 238 238 239 239 240 240 240 240 241 242 243 245 245 246 246 247 248 248 250 251 253 255 257 258 260 261 263 264 264 265 266 267 269 271 273 274 276 278 278 279 280 281
238 238 238 237 236 236 236 237 237 238 239 239 239 239 239 241 241 242 244 245 246 246 247 248 249 251 252 253 255 257 258 260 262 264 265 265 266 267 268 269 271 272 274 276 277 277 279 280 282
237 238 237 236 236 235 236 236 236 237 237 238 238 239 239 240 241 242 243 244 245 246 247 248 249 250 251 253 255 257 258 260 262 265 266 267 267 268 269 270 271 272 274 276 276 278 279 281 282
237 238 237 236 235 235 234 235 235 235 236 237 237 238 238 239 240 241 241 242 243 245 246 247 248 250 251 252 254 256 258 260 262 264 266 267 269 270 271 272 272 273 275 276 276 278 279 281 282
237 238 236 236 235 234 234 234 234 235 235 235 236 237 237 238 239 240 241 242 243 244 245 246 248 249 250 252 253 255 258 260 262 264 266 268 270 271 271 272 273 275 276 276 277 279 280 281 282
237 236 236 235 235 233 233 234 234 234 235 235 236 236 236 237 238 240 242 243 243 244 245 246 247 248 250 251 253 255 258 260 262 264 266 267 269 270 271 272 274 275 276 277 278 279 280 281 282
237 236 235 235 234 234 233 233 234 234 234 235 236 235 236 237 238 239 241 243 244 244 244 245 246 248 249 252 254 256 258 260 262 262 264 266 268 271 272 273 275 276 277 278 279 280 280 281 283
236 236 235 234 234 234 233 233 234 234 234 235 235 236 235 236 238 239 240 242 243 244 244 245 246 248 250 252 254 256 257 259 260 262 265 266 268 271 272 273 275 276 277 278 279 279 280 281 283
235 235 234 233 234 234 234 233 234 234 235 235 235 235 236 236 237 238 239 240 242 243 244 245 247 248 250 252 253 254 256 258 260 263 265 267 269 271 272 274 275 277 278 278 279 280 280 281 283
234 234 233 232 233 234 235 233 233 235 235 235 235 235 235 235 236 237 238 239 241 243 244 246 247 249 250 252 253 254 256 258 260 263 265 267 269 271 273 274 275 276 277 278 279 280 281 282 284
233 234 234 233 234 235 236 234 232 235 236 235 235 235 235 235 235 237 238 239 241 242 244 246 247 249 250 252 254 255 257 259 261 263 265 267 269 270 272 274 275 276 277 278 279 280 282 283 284
235 236 235 235 235 236 237 235 233 234 235 235 234 234 235 235 236 237 238 239 240 242 243 245 247 249 250 252 254 256 258 260 261 264 266 267 269 270 272 274 276 277 278 278 279 280 282 283 285
235 235 235 234 235 236 236 235 233 233 234 234 234 234 235 236 236 238 239 240 241 242 244 246 247 249 251 253 255 256 258 259 262 264 265 266 268 270 272 273 276 278 279 279 280 281 283 283 284
233 233 234 234 235 237 236 235 233 233 233 234 234 235 236 236 237 238 239 240 241 242 244 246 247 249 251 253 255 257 258 260 262 263 264 266 268 270 272 273 275 277 279 279 281 283 284 285 285
233 233 233 234 235 236 237 236 234 233 233 233 234 235 236 237 238 239 240 241 242 243 245 246 248 250 252 254 255 257 258 259 261 263 265 267 269 270 272 274 275 277 279 280 282 284 285 285 286
233 233 234 235 235 236 236 237 233 233 233 234 235 236 237 238 240 240 241 241 242 243 244 246 248 250 251 253 255 256 257 258 260 262 264 266 268 270 272 274 276 277 279 281 282 284 285 286 286
233 233 233 234 236 236 236 239 234 233 233 233 235 237 237 238 239 240 241 242 242 243 244 246 248 249 251 253 254 256 257 258 260 261 263 266 268 270 272 274 275 277 278 280 282 284 285 286 287
232 232 233 234 235 236 235 239 236 234 234 234 235 236 237 238 238 239 240 241 242 243 244 246 247 249 251 253 254 256 257 258 260 262 263 265 268 270 271 273 275 276 278 280 282 284 285 286 288
229 229 231 233 235 236 235 238 237 235 235 235 235 236 237 237 238 238 239 241 241 243 244 245 247 249 251 252 254 256 257 259 260 262 263 265 267 269 272 274 276 277 279 281 282 284 285 287 288
229 230 232 235 237 237 236 237 237 237 236 236 235 235 236 237 237 238 239 240 241 242 244 246 247 248 251 252 254 256 258 259 261 262 263 265 268 269 271 273 275 277 279 281 282 284 285 287 289
229 230 232 236 238 240 239 238 238 238 238 238 237 236 235 236 237 237 238 239 240 242 244 246 247 249 250 252 254 256 258 260 261 263 264 266 268 269 271 273 275 277 279 281 282 284 285 287 289
230 231 232 233 237 240 240 239 239 238 239 238 237 236 235 235 236 237 238 239 240 241 243 245 247 249 250 252 254 256 258 260 262 263 265 266 268 269 271 273 275 277 279 281 282 284 286 288 290
230 228 231 234 237 240 242 240 239 239 239 238 237 236 236 235 236 238 239 240 240 241 243 245 247 249 250 252 254 256 258 260 262 263 265 267 268 269 271 274 276 277 279 281 282 284 286 288 290
233 230 230 232 235 238 241 240 238 239 239 238 237 236 235 235 236 237 238 239 240 241 242 244 246 248 250 252 254 256 258 261 263 264 265 267 268 270 272 274 276 278 279 281 283 284 286 288 290
Height
5799 5802 5804 5806 5809 5811 5815 5820 5823 5825 5827 5829 5831 5833 5836 5839 5842 5845 5845 5845 5846 5847 5849 5850 5851 5852 5854 5855 5856 5857 5857 5858 5859 5860 5861 5861 5862 5862 5863 5863 5864 5864 5864 5864 5865 5865 5865 5865 5865
5793 5795 5798 5800 5802 5806 5812 5816 5819 5821 5822 5824 5827 5829 5832 5834 5836 5839 5840 5841 5843 5844 5845 5847 5848 5849 5851 5852 5853 5854 5855 5856 5856 5857 5858 5859 5859 5860 5860 5861 5861 5861 5862 5862 5862 5862 5862 5862 5862
5786 5789 5792 5794 5797 5803 5808 5812 5813 5815 5817 5820 5822 5825 5827 5830 5832 5834 5836 5838 5839 5841 5842 5843 5845 5846 5848 5849 5850 5851 5852 5853 5854 5854 5855 5856 5856 5857 5857 5858 5858 5859 5859 5859 5859 5859 5859 5859 5859
5779 5782 5785 5788 5793 5799 5802 5806 5807 5810 5812 5815 5818 5820 5823 5826 5828 5830 5832 5834 5836 5837 5839 5840 5842 5843 5844 5846 5847 5848 5849 5850 5850 5851 5852 5852 5853 5854 5854 5855 5855 5855 5856 5856 5856 5856 5856 5856 5855
5771 5774 5778 5782 5788 5793 5796 5799 5801 5804 5807 5810 5813 5816 5819 5821 5823 5825 5827 5829 5831 5833 5835 5836 5838 5839 5841 5842 5843 5844 5845 5846 5847 5848 5848 5849 5850 5850 5851 5851 5851 5852 5852 5852 5852 5852 5852 5852 5852
5764 5767 5772 5777 5783 5787 5790 5792 5795 5798 5801 5805 5808 5811 5814 5816 5818 5820 5823 5825 5827 5829 5831 5832 5834 5835 5837 5838 5840 5841 5842 5842 5843 5844 5845 5845 5846 5846 5847 5847 5848 5848 5848 5848 5848 5848 5848 5848 5847
5757 5760 5764 5770 5776 5780 5784 5786 5789 5792 5795 5799 5802 5806 5809 5811 5813 5816 5818 5820 5822 5825 5826 5828 5830 5831 5833 5834 5835 5837 5837 5838 5839 5840 5840 5841 5842 5842 5843 5843 5844 5844 5844 5844 5844 5844 5843 5843 5843
5748 5753 5756 5763 5769 5774 5777 5779 5782 5785 5789 5792 5796 5800 5804 5806 5808 5810 5813 5815 5817 5820 5822 5823 5825 5827 5828 5830 5831 5832 5833 5834 5835 5836 5836 5837 5837 5838 5838 5839 5839 5839 5839 5839 5839 5839 5839 5838 5838
5740 5745 5750 5757 5762 5766 5769 5772 5775 5779 5782 5786 5790 5794 5798 5800 5802 5805 5808 5810 5812 5814 5816 5819 5820 5822 5824 5825 5826 5828 5829 5830 5830 5831 5832 5832 5833 5833 5833 5834 5834 5834 5834 5834 5834 5834 5833 5833 5833
5731 5736 5745 5750 5754 5758 5761 5764 5768 5772 5775 5779 5783 5787 5791 5794 5797 5800 5802 5804 5807 5809 5811 5813 5815 5817 5819 5820 5822 5823 5824 5825 5826 5826 5827 5827 5828 5828 5828 5829 5829 5829 5829 5829 5829 5828 5828 5828 5827
5723 5730 5737 5740 5744 5749 5752 5756 5760 5764 5768 5773 5777 5781 5784 5787 5790 5793 5796 5798 5801 5803 5806 5808 5810 5812 5814 5815 5817 5818 5819 5820 5821 5821 5822 5823 5823 5823 5823 5823 5824 5823 5823 5823 5823 5823 5822 5822 5821
5715 5722 5726 5731 5735 5740 5744 5748 5752 5757 5762 5766 5769 5773 5777 5781 5784 5787 5790 5792 5795 5798 5800 5802 5805 5807 5808 5810 5811 5813 5814 5815 5816 5816 5817 5817 5818 5818 5818 5818 5818 5818 5818 5818 5818 5817 5817 5816 5816
5706 5713 5717 5721 5726 5730 5735 5740 5744 5750 5754 5758 5762 5766 5770 5774 5777 5780 5783 5786 5789 5791 5794 5796 5799 5801 5803 5804 5806 5807 5808 5809 5810 5811 5812 5812 5813 5813 5813 5813 5813 5813 5813 5812 5812 5811 5811 5810 5809
5697 5702 5707 5712 5716 5721 5726 5731 5736 5743 5746 5750 5754 5759 5763 5767 5771 5774 5777 5780 5782 5785 5788 5790 5793 5795 5797 5798 5800 5801 5803 5804 5804 5805 5806 5806 5807 5807 5807 5807 5807 5807 5807 5806 5806 5805 5804 5804 5803
5686 5692 5697 5702 5707 5712 5717 5722 5729 5735 5737 5742 5746 5751 5755 5759 5763 5767 5770 5773 5776 5778 5781 5784 5786 5788 5790 5792 5794 5795 5796 5798 5799 5799 5800 5800 5801 5801 5801 5801 5801 5801 5800 5800 5799 5798 5797 5797 5796
5675 5680 5687 5695 5699 5703 5708 5715 5723 5724 5729 5734 5738 5743 5747 5752 5756 5759 5763 5766 5769 5771 5774 5777 5779 5782 5784 5786 5787 5789 5790 5791 5792 5793 5794 5794 5795 5795 5795 5795 5794 5794 5793 5793 5792 5791 5790 5789 5788
5664 5671 5679 5686 5690 5693 5698 5707 5714 5715 5720 5725 5730 5735 5739 5744 5748 5752 5755 5758 5762 5764 5767 5770 5773 5775 5777 5779 5781 5782 5784 5785 5786 5786 5787 5788 5788 5788 5788 5788 5787 5787 5786 5786 5785 5784 5783 5782 5780
5658 5664 5670 5676 5681 5684 5689 5697 5703 5706 5710 5716 5721 5726 5731 5736 5741 5744 5747 5751 5754 5757 5760 5763 5766 5768 5770 5772 5774 5776 5777 5778 5779 5780 5780 5781 5781 5781 5781 5780 5780 5779 5779 5778 5777 5776 5775 5773 5772
5648 5653 5659 5666 5670 5674 5679 5686 5692 5696 5701 5707 5712 5718 5723 5728 5732 5736 5740 5743 5747 5750 5753 5756 5759 5761 5763 5765 5767 5768 5770 5771 5772 5773 5773 5773 5773 5773 5773 5773 5773 5772 5771 5770 5769 5768 5766 5765 5763
5635 5641 5648 5655 5660 5664 5669 5675 5682 5687 5692 5698 5704 5709 5714 5719 5723 5728 5732 5736 5739 5743 5745 5748 5751 5753 5756 5758 5760 5761 5762 5764 5765 5765 5766 5766 5766 5766 5766 5766 5765 5764 5763 5762 5761 5759 5758 5756 5754
5625 5632 5639 5644 5649 5653 5658 5664 5672 5678 5683 5689 5695 5700 5705 5710 5715 5719 5723 5727 5731 5735 5738 5740 5743 5745 5748 5750 5752 5754 5755 5756 5757 5758 5758 5758 5758 5758 5758 5757 5757 5756 5755 5754 5752 5751 5749 5747 5745
5616 5623 5628 5633 5637 5641 5647 5652 5663 5669 5675 5681 5687 5692 5697 5702 5706 5710 5714 5719 5723 5726 5729 5731 5734 5737 5739 5742 5744 5746 5747 5748 5749 5750 5750 5750 5750 5750 5750 5749 5748 5748 5746 5745 5744 5742 5740 5738 5736
5606 5612 5617 5622 5626 5631 5637 5642 5653 5660 5667 5673 5679 5683 5688 5692 5697 5701 5705 5709 5713 5717 5720 5723 5726 5728 5731 5733 5736 5737 5739 5740 5741 5741 5742 5742 5742 5742 5741 5741 5740 5739 5738 5736 5735 5733 5731 5728 5726
5595 5601 5606 5610 5614 5620 5629 5633 5642 5652 5659 5665 5669 5674 5678 5683 5687 5692 5696 5700 5704 5708 5711 5714 5717 5720 5723 5725 5727 5729 5730 5731 5732 5733 5733 5734 5734 5733 5733 5732 5731 5730 5729 5727 5725 5723 5721 5719 5716
5585 5591 5596 5599 5603 5610 5620 5623 5633 5644 5649 5655 5660 5664 5669 5673 5678 5682 5687 5691 5695 5699 5702 5706 5709 5712 5714 5716 5718 5720 5721 5722 5723 5724 5724 5725 5725 5724 5724 5723 5722 5720 5719 5717 5715 5713 5711 5708 5706
5578 5583 5589 5593 5597 5604 5609 5614 5626 5634 5639 5644 5650 5655 5659 5664 5669 5673 5677 5682 5686 5690 5693 5697 5700 5703 5705 5707 5709 5711 5712 5713 5714 5715 5715 5715 5715 5715 5714 5713 5712 5710 5709 5707 5705 5703 5700 5698 5695
5569 5574 5581 5585 5588 5594 5599 5607 5617 5624 5630 5635 5641 5645 5650 5655 5659 5664 5668 5672 5677 5681 5684 5688 5691 5693 5696 5698 5700 5701 5703 5704 5705 5705 5706 5706 5705 5705 5704 5703 5702 5700 5698 5697 5694 5692 5690 5687 5684
5562 5567 5572 5575 5579 5584 5591 5599 5608 5615 5621 5626 5631 5636 5641 5646 5650 5654 5659 5663 5667 5671 5675 5678 5681 5684 5686 5688 5690 5692 5693 5694 5695 5695 5696 5696 5695 5695 5694 5693 5691 5690 5688 5686 5684 5682 5679 5676 5673
5554 5559 5563 5568 5572 5578 5583 5594 5600 5606 5611 5617 5622 5627 5631 5636 5641 5645 5649 5654 5658 5662 5665 5668 5671 5674 5677 5679 5681 5682 5683 5684 5685 5685 5685 5685 5684 5684 5683 5682 5680 5679 5677 5675 5673 5671 5668 5665 5662
5546 5551 5556 5561 5565 5570 5576 5587 5591 5597 5602 5607 5612 5617 5622 5627 5631 5636 5640 5644 5648 5652 5656 5659 5662 5665 5667 5669 5671 5672 5673 5674 5674 5674 5674 5674 5674 5673 5672 5671 5670 5668 5666 5664 5662 5660 5657 5654 5651